Theta_e
311 312 311 311 310 310 310 311 310 310 311 311 311 312 312 312 312 312 312 312 313 313 313 312 312 312 305 294 293 301 314 310 305 305 315 306 300 299 294 295 300 301 307 309 312 311 313
310 311 311 311 310 310 310 310 310 310 310 310 311 311 311 312 312 312 312 313 312 312 311 312 311 310 301 291 302 303 303 302 301 300 300 305 299 300 297 295 297 298 300 302 305 306 306
311 311 311 310 310 310 310 310 310 310 311 311 311 312 312 312 312 313 313 312 312 312 313 312 312 308 300 296 305 305 304 301 300 301 298 300 304 300 297 294 298 297 294 298 299 299 299
310 310 310 309 310 309 309 309 309 309 309 310 311 311 311 311 311 312 313 313 313 313 314 313 313 306 296 306 305 303 303 302 303 303 301 302 301 296 297 298 297 294 292 290 298 300 301
309 309 310 309 309 309 308 309 309 309 309 309 310 311 310 310 310 311 313 312 314 315 314 314 306 301 294 309 304 307 304 301 301 301 301 304 297 294 295 291 289 291 289 291 294 301 301
310 310 309 309 309 309 308 308 308 309 309 309 309 310 310 310 310 311 312 312 313 311 311 311 308 295 297 296 302 304 305 303 299 298 296 295 291 289 287 288 284 287 289 291 292 297 299
309 309 309 309 309 309 308 308 308 309 309 309 309 309 310 310 310 311 307 300 295 293 294 292 294 294 297 302 304 301 303 300 298 296 287 290 284 284 289 291 292 290 290 290 294 298 297
309 309 309 309 309 308 308 308 309 308 309 309 309 309 309 310 311 310 301 296 297 296 289 297 297 297 300 301 295 299 302 294 292 286 289 286 284 290 291 291 290 290 287 287 293 296 294
308 308 308 308 308 308 308 308 308 308 308 309 308 309 309 310 310 302 298 299 302 298 287 292 296 297 298 299 295 295 298 294 290 286 286 283 287 293 290 288 288 288 287 288 289 294 295
307 308 308 308 308 308 308 308 308 308 308 308 309 309 309 309 301 298 298 303 301 297 281 289 294 297 297 298 293 301 301 295 290 286 287 285 289 288 287 287 288 283 291 292 291 288 284
307 307 307 308 308 308 308 308 308 308 308 308 309 309 309 308 298 297 301 301 302 294 270 290 292 300 297 294 294 297 304 299 291 290 287 284 286 285 285 287 290 287 291 290 291 288 285
306 307 307 307 307 307 308 308 308 308 308 308 309 309 308 301 297 301 302 300 296 280 271 287 292 291 290 292 293 297 298 301 299 293 292 288 291 289 287 290 290 291 288 288 288 285 278
306 306 306 306 306 306 308 308 308 308 308 308 309 308 306 304 295 300 299 292 279 273 289 286 287 290 288 288 290 292 290 290 287 283 284 289 287 291 291 286 290 287 281 276 275 276 278
307 307 306 307 306 306 307 307 307 307 308 308 307 306 303 304 301 300 294 285 271 283 285 291 290 289 285 288 288 289 288 286 292 290 285 282 280 289 295 290 286 284 282 276 274 276 279
306 306 306 306 306 307 307 307 307 307 307 306 305 296 296 301 303 298 288 277 280 285 289 288 288 284 283 287 287 286 285 287 290 291 284 283 283 293 294 294 290 285 280 286 279 281 278
307 306 306 306 307 307 307 307 307 307 307 306 294 294 297 302 301 295 285 283 285 291 292 290 283 286 281 283 284 283 285 291 290 293 292 287 280 290 292 292 292 287 290 279 278 275 275
308 308 307 308 307 307 307 307 307 307 306 305 294 292 300 302 300 289 279 283 288 294 293 289 286 284 284 284 285 284 286 290 293 291 293 286 283 285 288 286 282 284 283 284 282 280 276
307 308 308 308 308 308 307 307 307 307 305 301 290 287 300 299 287 278 280 288 293 292 294 292 291 288 285 286 284 285 285 289 294 293 288 289 284 280 283 288 291 288 286 285 279 279 281
307 307 307 308 308 307 308 307 307 306 305 300 291 288 299 296 278 279 285 289 291 291 291 290 289 290 289 285 282 286 288 294 293 292 288 288 281 277 278 284 289 286 289 287 286 283 281
307 307 308 308 308 308 307 307 306 306 305 300 292 285 288 289 287 283 283 285 288 293 292 292 290 290 287 285 288 285 286 291 293 293 297 293 286 281 277 280 286 283 287 290 287 280 283
307 307 308 308 309 309 308 307 307 306 305 296 290 285 287 281 284 286 284 286 286 287 293 293 288 289 288 284 286 285 287 289 292 294 292 289 282 284 285 287 288 287 286 287 287 287 283
307 308 308 308 308 308 308 308 308 306 304 294 286 286 288 286 288 288 286 285 287 288 290 288 288 289 289 286 287 285 288 288 287 289 287 288 281 286 284 288 287 285 288 289 289 290 289
308 308 308 308 308 308 308 308 308 307 301 289 290 291 289 286 285 285 284 288 288 290 291 293 291 290 287 289 292 292 292 292 291 289 284 285 284 281 278 285 286 282 287 289 290 291 290
308 308 308 308 308 307 308 308 308 308 303 298 293 291 289 281 285 284 288 289 289 289 288 292 292 289 293 297 294 293 291 290 290 290 290 283 283 283 280 283 274 287 296 295 291 294 295
308 308 308 308 307 307 306 307 308 308 307 299 297 294 290 281 286 286 289 288 289 291 290 292 292 296 295 291 286 286 284 286 288 289 289 289 285 282 279 280 285 290 292 291 290 292 300
308 308 308 308 307 307 306 307 308 308 308 301 298 297 292 288 282 291 287 289 288 288 290 291 294 294 291 287 286 281 278 285 284 287 294 290 289 284 283 278 277 289 292 295 295 287 299
307 307 307 307 306 306 305 305 306 307 308 304 299 298 294 288 288 288 287 286 292 292 289 291 290 288 289 285 278 280 281 288 280 282 285 286 285 282 281 280 286 291 292 293 287 290 300
306 305 305 305 305 305 305 305 305 306 307 305 299 299 296 290 291 291 291 289 292 291 288 290 289 287 286 283 282 280 282 285 285 288 286 284 282 284 284 282 280 292 290 291 296 300 303
305 304 304 304 305 304 305 306 306 306 307 307 299 300 301 294 292 295 295 296 297 296 293 294 290 290 287 287 282 287 284 286 285 280 292 284 287 284 285 285 289 290 290 299 303 302 303
Wind_Speed
15 16 15 16 16 16 15 15 17 17 18 18 19 20 20 20 21 21 21 21 21 20 18 17 15 13 4 5 14 6 21 18 11 7 6 12 12 6 9 6 5 15 9 6 9 9 11
15 16 16 16 16 17 16 16 17 17 18 18 19 21 22 23 23 23 22 22 21 20 19 16 12 8 3 7 7 6 8 7 7 7 7 9 7 6 5 6 14 1 8 13 11 15 7
16 16 16 18 18 19 19 20 20 21 19 20 20 22 24 25 25 26 25 24 20 18 17 13 8 5 6 21 5 8 10 8 3 6 5 4 11 5 5 1 7 4 8 11 13 4 7
16 17 17 18 19 20 21 21 21 21 21 21 21 22 24 25 25 26 27 28 29 21 13 5 6 3 10 7 5 10 7 9 8 11 9 10 7 5 6 3 5 3 4 15 16 13 7
16 16 16 17 17 19 20 20 21 21 21 22 22 22 24 26 26 25 26 26 27 17 3 9 6 5 12 7 6 8 8 9 7 6 7 9 4 6 3 5 4 5 12 15 11 5 7
16 16 16 17 17 17 18 19 19 20 20 21 21 20 22 24 25 24 24 24 19 4 4 7 3 2 7 12 15 16 16 10 6 5 5 6 4 5 3 7 19 11 14 3 4 3 8
16 17 17 17 18 18 18 19 19 20 20 20 21 21 21 23 24 22 13 6 8 7 3 6 13 8 18 9 13 11 4 6 8 4 4 5 5 16 17 14 12 6 6 2 4 7 12
17 17 18 18 19 19 19 19 20 21 21 21 22 23 24 24 25 20 1 2 1 7 10 13 15 11 15 3 6 13 7 5 1 6 7 3 18 7 1 3 9 12 10 8 6 11 5
17 18 18 19 19 19 20 20 21 22 22 22 23 23 24 24 25 3 2 4 4 4 2 9 6 6 10 2 4 9 5 2 4 6 7 8 6 5 11 6 10 7 8 9 8 9 18
17 17 18 18 18 19 20 22 23 23 24 23 22 22 21 26 4 5 6 4 7 2 3 6 5 5 10 7 4 6 5 6 3 6 6 7 8 10 7 6 15 16 4 9 4 5 9
18 18 19 19 19 20 21 22 23 24 25 23 23 23 21 14 4 4 7 8 7 5 3 13 4 8 17 2 10 5 2 3 4 9 3 9 6 3 10 10 8 7 12 11 10 8 4
18 19 19 19 20 21 21 21 23 23 23 24 23 22 20 0 1 8 7 8 4 6 4 8 9 15 12 14 10 6 5 1 1 7 7 17 7 9 8 9 8 6 4 8 9 2 6
17 18 19 20 21 21 21 21 23 24 25 26 27 24 14 3 5 2 3 4 5 5 7 7 14 16 17 9 11 5 13 7 3 3 3 5 15 7 7 6 5 5 4 1 2 4 13
18 18 18 19 21 22 21 23 24 24 25 28 29 21 5 5 2 4 4 6 8 2 4 6 10 16 4 10 8 9 10 5 3 10 2 1 3 9 6 11 7 7 10 6 7 5 5
19 19 19 20 21 21 22 23 25 26 26 29 21 4 2 4 3 3 6 6 3 4 8 9 10 4 5 12 7 6 4 3 2 6 2 5 4 3 2 1 6 2 5 9 4 3 2
18 19 20 20 20 22 21 22 24 27 28 26 3 4 4 3 5 5 6 3 3 5 11 7 4 2 5 9 6 7 4 2 4 5 3 4 0 4 5 3 6 6 3 3 1 5 6
19 19 19 19 20 21 22 23 22 24 28 21 4 4 4 3 5 6 3 5 7 8 9 4 4 5 6 5 5 4 5 7 2 6 6 3 1 3 2 4 4 2 2 4 3 5 5
19 19 19 20 19 20 21 22 23 23 24 7 4 3 3 3 5 0 1 6 9 8 7 5 4 4 4 7 5 4 5 5 5 2 4 3 2 4 9 7 8 2 4 3 4 7 8
19 19 20 20 21 21 20 22 22 22 18 4 4 3 4 5 3 3 6 6 5 7 8 5 6 3 2 4 5 6 6 5 7 2 2 2 2 4 8 3 5 1 5 5 3 1 10
18 19 18 18 19 18 20 19 22 23 21 1 3 5 5 5 1 2 5 5 7 10 8 9 7 4 5 6 6 8 10 7 4 4 9 5 3 4 4 8 6 9 11 5 4 4 6
18 18 18 18 18 17 18 19 18 22 23 2 4 2 1 5 4 7 3 5 8 8 4 6 5 4 14 7 14 8 6 6 7 10 4 7 5 5 9 12 14 15 17 17 12 8 8
18 18 17 17 18 17 16 16 16 17 19 4 3 4 4 5 6 5 5 4 8 12 5 8 6 17 15 11 14 22 19 10 10 7 3 3 5 3 9 10 19 18 19 19 17 18 13
17 17 17 16 16 17 16 15 15 13 8 3 3 3 0 6 4 4 3 5 14 14 9 9 14 16 13 16 14 20 19 21 19 16 7 6 4 1 6 10 11 13 21 23 15 12 12
17 17 16 16 14 16 16 15 14 10 4 1 2 0 3 6 3 4 10 16 16 13 13 15 11 9 10 19 18 13 11 16 14 16 13 4 4 4 6 5 7 4 9 7 14 12 13
18 18 17 15 15 15 16 15 14 12 4 2 2 1 2 5 3 15 7 6 10 12 10 14 13 13 11 8 5 7 5 3 0 6 13 15 8 3 4 3 8 8 7 6 5 2 6
19 19 18 16 16 16 16 17 14 13 9 2 3 3 1 4 5 5 9 8 7 8 6 12 8 5 6 3 3 4 3 4 5 9 6 10 14 7 3 3 5 3 7 11 10 5 6
17 18 18 18 18 16 18 18 17 15 13 3 3 4 2 4 6 3 5 3 5 4 5 7 7 7 4 5 4 3 3 4 4 5 5 1 2 10 7 5 6 4 12 11 7 2 14
17 17 18 18 17 18 18 18 16 16 14 6 3 6 4 4 10 10 7 5 4 3 3 6 6 5 4 6 3 3 3 4 4 3 7 3 4 2 3 5 4 10 13 3 5 6 8
17 17 18 18 17 17 19 18 17 15 15 10 5 3 4 4 9 12 16 19 19 19 5 3 3 1 2 3 2 4 3 3 5 4 3 3 3 3 2 2 3 12 14 10 7 6 4
Wind_Direction
20 18 18 15 13 8 3 1 358 353 351 348 343 338 334 330 328 324 321 315 310 310 308 308 310 324 10 14 251 304 323 330 333 358 221 211 203 190 197 201 186 244 237 227 247 260 249
21 17 15 11 10 6 2 357 354 351 348 344 338 335 332 330 327 322 315 310 307 306 305 300 300 306 271 291 252 277 312 325 352 352 334 199 214 207 244 214 206 125 219 244 248 257 264
14 13 10 8 6 2 359 356 353 349 346 343 339 335 332 330 327 324 320 313 304 303 294 292 291 282 279 252 264 313 325 285 232 255 281 275 256 247 165 294 252 262 293 282 237 198 242
15 12 7 6 3 360 356 353 350 347 343 339 336 333 330 330 329 324 321 317 312 311 291 249 197 219 255 277 289 296 279 292 234 232 225 255 266 250 179 299 319 215 190 243 253 224 218
8 6 3 0 2 357 353 350 348 344 342 340 337 334 330 330 329 322 315 308 306 328 314 148 136 150 270 292 281 245 190 313 293 229 213 244 177 194 179 157 352 236 239 228 261 202 207
3 1 359 359 357 357 352 349 346 341 340 338 336 332 328 329 328 324 318 305 293 4 152 168 169 295 283 310 298 300 295 300 274 283 216 202 181 171 166 159 211 216 230 300 181 206 225
1 358 356 356 354 352 347 344 340 337 337 338 337 335 331 331 330 329 334 5 8 344 49 243 257 248 266 259 290 284 301 319 300 227 213 201 163 212 208 225 274 341 301 17 337 227 218
360 356 355 354 353 350 346 344 341 339 337 336 336 335 336 334 329 331 96 53 278 259 304 285 254 242 258 217 292 290 129 166 329 302 318 298 231 221 94 197 231 261 276 277 280 270 270
360 358 356 354 351 349 346 344 342 340 338 336 333 333 335 331 321 38 277 238 335 19 266 295 253 261 282 110 257 282 140 109 221 257 248 230 260 237 236 249 248 235 226 253 246 311 298
360 359 358 354 349 349 347 345 342 340 338 334 329 330 337 336 23 322 293 293 347 121 28 283 330 291 331 317 283 291 181 163 223 234 257 245 234 245 258 238 229 253 229 254 260 209 259
359 359 358 355 353 348 345 343 342 340 334 332 327 329 332 330 272 328 263 344 327 65 16 312 349 309 328 301 307 324 61 86 268 262 189 231 284 251 235 240 229 249 236 251 226 239 276
359 358 358 356 353 348 343 339 338 337 332 326 325 326 328 124 262 241 343 308 54 50 279 330 350 327 326 323 329 333 292 306 195 276 225 230 240 242 217 252 244 253 224 228 224 129 250
357 355 355 353 351 348 343 340 337 336 332 326 323 320 313 188 231 60 338 36 38 89 348 345 317 320 318 317 322 337 324 298 110 330 309 345 230 257 224 236 251 176 83 262 126 191 229
353 353 354 352 350 346 344 342 338 337 335 327 324 316 215 219 249 35 43 45 61 340 290 302 308 310 320 346 317 332 322 342 145 217 256 107 241 182 211 199 199 191 162 183 182 182 224
353 350 351 351 347 344 345 344 340 338 338 334 328 345 306 273 175 91 59 39 227 325 313 319 325 310 312 333 301 333 317 276 326 28 42 259 240 45 55 54 149 227 162 215 3 239 220
352 350 350 348 344 343 343 346 343 339 340 338 349 344 285 324 122 63 69 280 245 286 311 311 275 271 302 316 317 333 292 299 2 17 150 267 343 358 13 355 211 167 205 99 132 223 238
350 349 349 346 344 342 343 344 345 344 341 337 28 30 293 46 59 50 123 236 272 287 345 319 279 283 288 305 284 283 310 311 28 342 321 320 85 279 14 219 207 285 197 210 191 208 220
350 348 347 347 345 343 342 344 344 348 348 17 353 50 307 51 38 222 356 301 305 336 338 299 281 238 261 297 273 274 282 284 348 6 328 351 194 237 235 239 248 272 246 168 192 232 253
348 347 345 347 347 347 345 344 343 347 359 319 348 278 312 78 69 319 300 286 285 337 313 317 293 273 302 275 306 277 254 266 319 251 205 282 298 319 339 17 52 204 245 213 252 293 245
344 344 343 343 345 344 346 347 343 342 352 84 1 354 327 43 116 128 311 275 329 320 293 313 265 287 335 289 246 269 273 291 338 232 268 138 218 192 200 264 319 295 287 270 201 244 252
337 335 338 336 337 342 346 346 345 342 345 91 30 325 232 309 327 317 259 261 320 342 257 284 292 293 314 282 294 250 237 295 294 278 255 160 226 217 244 260 282 275 263 265 243 236 238
327 325 328 327 334 336 339 341 343 348 345 67 38 14 339 277 265 287 309 277 314 326 303 296 273 304 304 275 271 287 279 248 243 291 261 191 252 246 271 254 255 277 253 252 254 252 254
317 317 320 324 329 330 332 336 338 355 23 44 320 315 169 274 288 303 267 315 312 309 294 254 296 306 298 290 295 285 272 269 257 255 225 186 203 247 257 287 301 277 229 223 228 230 214
313 314 316 319 325 325 327 330 330 338 69 182 251 269 285 275 281 269 291 296 296 306 289 293 296 291 288 305 299 276 250 251 247 239 224 217 168 196 284 311 247 259 17 205 216 233 233
312 312 313 316 320 323 323 321 321 320 292 172 188 206 258 279 283 297 278 314 300 299 289 288 287 286 312 307 330 334 339 350 226 211 200 208 201 244 249 236 294 241 40 11 357 247 29
309 314 313 315 318 320 319 318 318 314 309 182 213 167 229 289 260 289 318 292 297 302 304 302 291 329 352 353 346 334 320 321 325 338 349 194 201 191 204 279 292 49 348 343 313 262 353
309 314 317 320 320 324 324 317 312 313 308 286 225 178 195 264 265 229 224 278 281 279 282 292 325 342 10 357 360 338 307 335 331 311 339 70 184 220 225 243 258 346 326 315 195 315 316
312 319 319 316 316 319 315 313 306 303 304 305 231 185 175 237 270 244 259 226 256 230 266 310 340 353 337 23 354 315 297 323 296 294 329 320 291 246 199 226 266 360 325 263 321 303 313
314 313 314 312 312 315 317 314 310 305 301 300 269 193 176 230 265 278 260 248 240 244 263 260 265 264 271 327 2 298 292 290 296 308 339 322 315 289 311 270 275 280 239 272 306 313 332